Theta_e
322 322 320 321 321 321 319 318 319 321 321 320 320 321 322 321 319 313 313 315 317 314 315 317 317 317 322 322 322 321 320 305 303 304 300 303 321 324 325 324 324 323 321 310 308 305 301 299 298 300 298 297 296 299 298 304 305 304 297 293 290 291 291 293 294 291 294 292 292 296 294 292 290 292 294 297 295 299 297 298 299 298 299 302 306 310 311 311
321 321 321 321 321 321 320 320 320 320 320 321 321 322 322 322 322 319 316 319 318 316 318 317 313 321 322 322 321 322 312 306 301 301 301 318 325 325 326 325 324 323 319 306 305 301 297 295 298 299 296 293 298 295 299 298 305 297 293 293 290 291 293 295 293 292 292 292 294 295 294 293 292 292 293 291 289 291 291 292 294 295 296 295 306 308 308 309
321 321 321 321 321 320 321 320 320 320 320 321 321 321 322 322 322 323 323 323 323 322 321 320 322 322 322 322 321 320 312 304 300 297 300 312 324 326 327 326 325 323 308 305 303 302 298 296 297 297 295 292 294 293 300 295 302 297 294 288 290 293 293 294 293 292 295 295 293 293 294 293 293 292 294 291 289 290 289 289 291 291 292 293 299 306 307 307
320 320 320 320 319 320 320 320 320 320 320 321 321 321 321 321 321 322 323 323 323 322 321 321 322 322 322 321 322 312 307 305 295 298 305 325 326 326 327 325 325 322 316 309 305 304 301 298 296 296 295 293 292 296 295 295 295 294 294 289 289 292 289 292 294 293 294 294 294 293 291 291 291 292 292 290 288 288 289 292 292 291 292 292 293 303 305 305
320 319 319 319 320 320 320 320 320 320 320 320 321 321 321 321 321 321 322 322 322 322 322 322 321 322 322 322 319 311 305 292 292 304 314 325 324 324 327 325 324 315 312 309 308 305 299 296 296 296 295 288 291 292 290 293 296 294 292 293 293 291 290 292 291 294 294 293 291 289 289 290 292 291 291 290 287 287 289 293 293 293 292 293 294 294 298 295
319 319 319 319 319 319 319 319 319 319 319 320 320 320 320 321 321 321 321 321 321 322 323 322 322 321 321 320 308 309 299 284 301 302 324 324 324 323 324 324 323 311 307 304 304 300 296 296 296 293 291 291 288 288 289 292 296 288 288 291 291 291 289 291 292 292 292 291 290 289 291 292 290 289 290 289 289 291 292 292 292 293 292 291 290 290 289 289
319 319 319 319 319 319 319 319 319 319 319 319 320 320 320 320 320 320 320 320 321 322 321 322 322 322 320 318 309 306 298 298 301 304 320 325 318 322 323 320 319 305 305 303 300 298 296 294 295 292 292 291 288 288 291 291 292 292 286 289 291 292 292 293 290 289 288 290 290 291 292 290 288 287 290 289 291 291 292 292 293 291 290 290 288 288 288 288
319 319 319 318 318 318 318 319 319 319 318 319 319 319 320 320 320 319 319 320 321 321 321 321 322 318 318 309 302 298 297 294 302 309 317 323 319 317 317 306 307 306 302 300 298 295 295 292 291 293 290 288 289 289 291 290 289 288 287 288 289 290 289 290 289 289 289 288 288 291 289 289 288 289 288 289 291 291 291 290 290 290 289 289 288 287 287 287
319 319 318 318 318 318 319 319 318 318 318 318 318 318 319 320 319 319 319 320 320 320 321 321 319 320 318 306 302 295 293 299 304 309 316 314 314 312 307 304 305 303 299 298 297 297 295 292 292 292 288 288 290 289 289 288 284 290 289 290 289 289 290 290 290 290 289 290 290 288 287 286 287 290 288 290 289 289 290 289 289 289 288 287 287 287 287 286
318 318 318 317 317 318 318 318 318 318 317 317 317 318 318 319 319 319 319 320 320 320 321 320 320 319 308 298 297 288 296 302 304 306 306 302 303 303 304 303 301 299 297 296 296 296 294 293 294 294 294 290 291 290 291 290 284 291 290 289 289 289 289 290 289 290 289 289 288 288 286 287 288 290 282 288 289 289 289 288 288 288 287 287 287 287 286 286
318 318 317 317 318 318 318 318 318 318 317 317 317 318 318 319 319 319 319 319 320 320 320 321 320 312 301 298 292 288 301 301 300 299 300 301 301 300 300 298 299 298 296 296 295 297 296 295 295 295 294 289 291 289 290 291 292 290 290 288 288 288 288 289 289 289 288 288 287 287 286 286 287 288 285 288 288 289 287 287 287 287 286 286 286 286 286 286
318 317 317 318 318 318 318 318 318 318 318 318 317 318 318 319 319 319 319 319 319 320 320 320 317 312 303 300 293 293 300 301 300 298 299 299 299 298 298 298 299 299 297 294 295 296 296 297 296 296 287 294 286 291 289 292 292 291 290 286 286 287 287 288 287 288 288 287 288 288 284 282 285 284 286 287 288 288 287 286 286 286 286 286 285 285 285 285
317 317 317 317 317 318 318 318 318 318 318 318 318 318 319 319 318 318 319 319 319 320 320 320 318 313 302 294 296 300 301 302 301 301 300 299 299 299 299 300 299 298 298 296 295 297 297 297 295 292 293 293 290 286 291 293 290 291 289 286 285 284 285 289 289 290 288 289 287 285 276 278 282 284 286 287 287 287 285 285 285 285 285 285 285 284 285 285
317 316 317 317 317 318 317 317 318 318 318 318 318 318 319 318 318 318 319 319 320 320 320 320 315 304 296 293 298 300 304 303 301 300 298 299 298 297 299 299 298 297 298 298 295 296 299 296 297 294 297 292 288 294 292 290 291 283 286 288 281 280 277 287 289 288 287 289 287 287 278 280 282 285 286 287 287 285 284 284 284 284 284 284 284 284 284 284
316 316 317 317 317 317 317 317 318 318 318 318 318 318 318 318 318 318 320 320 319 320 317 314 305 300 293 296 301 301 319 301 300 298 299 297 296 295 297 297 297 297 296 298 297 298 298 296 295 293 288 295 295 291 285 285 286 285 284 276 278 280 279 286 288 286 285 289 288 284 275 279 281 283 286 286 286 285 283 283 283 283 283 284 283 283 283 283
317 316 317 317 317 317 317 318 318 318 318 317 317 318 318 318 319 319 321 320 319 320 316 304 304 299 294 292 297 311 300 296 297 298 299 298 296 294 295 294 295 297 298 296 298 298 298 296 292 289 293 291 290 285 283 279 278 283 280 276 278 279 279 282 286 288 288 287 287 287 280 281 280 283 285 286 285 284 282 282 282 283 283 283 283 283 283 283
316 316 317 317 316 316 317 317 317 318 317 318 318 318 319 319 320 320 319 318 316 317 309 303 303 300 291 299 302 297 295 297 298 298 297 298 296 295 295 294 294 294 296 295 297 296 295 293 293 291 292 286 284 285 279 272 274 276 281 279 279 281 279 279 284 286 288 286 284 286 281 280 281 283 284 285 284 283 282 282 282 282 282 282 282 282 282 282
316 316 316 317 317 316 316 316 316 317 318 318 318 318 317 319 319 318 314 316 313 311 308 309 302 296 294 297 292 293 296 296 297 296 296 295 297 295 294 293 293 292 294 293 295 292 293 289 292 284 285 285 286 282 276 274 279 277 277 277 279 278 281 281 280 284 287 287 284 282 281 280 280 282 283 283 284 282 281 281 281 281 282 282 282 282 282 282
316 316 316 316 317 316 316 316 317 318 318 319 320 320 319 318 314 314 307 308 303 298 294 295 294 287 284 292 295 295 296 295 297 296 295 297 296 296 295 295 293 291 289 288 288 291 291 288 288 282 280 280 282 283 279 281 282 280 281 279 279 277 278 280 283 286 288 284 283 282 281 279 280 280 281 282 283 281 281 281 281 281 282 282 282 282 282 281
316 316 316 316 317 317 316 317 317 318 319 312 309 310 306 302 301 298 301 302 296 297 297 297 297 297 295 292 293 295 298 297 293 294 295 296 294 292 292 293 292 292 289 284 288 288 291 283 279 277 280 283 286 286 285 285 284 283 281 280 278 277 280 283 284 287 287 283 281 282 282 279 279 279 280 281 281 281 280 280 280 280 281 281 281 282 282 282
316 316 315 315 315 317 317 317 318 318 318 312 312 306 299 297 293 292 296 296 297 298 296 296 297 294 292 294 294 292 291 292 294 293 294 297 294 292 289 290 288 286 284 287 288 292 286 281 279 281 283 285 284 285 285 285 283 282 280 278 277 279 278 283 285 288 287 283 279 281 279 278 278 279 280 280 280 279 279 279 279 280 281 281 281 281 281 282
315 315 315 315 316 316 316 317 318 318 318 310 310 306 303 302 301 301 295 290 296 297 297 295 295 293 294 294 294 294 292 289 290 291 295 296 293 288 289 288 287 283 285 287 287 282 281 280 280 285 285 285 284 284 284 284 282 280 280 278 277 278 280 283 285 286 287 283 279 279 277 277 278 279 280 280 280 280 281 280 280 280 280 280 280 280 281 281
315 315 316 315 316 316 316 317 318 316 309 308 307 305 306 308 307 306 300 293 294 298 297 295 294 291 292 294 294 295 290 287 287 290 292 295 290 290 289 285 284 286 285 286 283 279 279 278 285 286 285 284 282 283 282 280 280 281 278 277 276 277 277 274 278 282 283 282 278 278 275 277 278 279 279 281 280 280 281 281 280 281 279 279 279 280 280 280
315 315 315 316 315 316 317 318 317 310 305 306 306 307 308 308 307 303 298 291 291 295 296 296 294 292 291 291 295 293 290 289 289 288 294 293 289 291 288 288 285 282 282 285 284 282 278 284 285 285 284 284 283 282 281 278 277 278 280 277 276 278 278 278 277 280 281 280 281 279 276 274 276 276 277 279 280 280 280 280 280 280 280 280 280 280 280 279
314 314 315 314 316 317 318 317 308 304 305 305 304 307 308 307 305 305 296 289 289 292 299 299 297 293 293 297 295 292 293 291 290 293 293 292 289 288 288 291 285 281 284 284 283 281 282 286 284 283 282 282 282 280 280 279 274 275 278 281 280 279 277 277 278 279 276 274 278 279 268 270 274 275 276 278 279 278 278 278 278 278 279 279 278 278 279 280
313 314 315 315 316 316 317 305 304 304 306 302 306 308 307 307 306 304 294 284 280 287 295 291 296 291 297 293 295 294 294 288 291 292 295 292 295 291 288 285 286 281 284 284 284 282 283 284 283 283 282 280 280 280 281 279 276 274 277 279 280 279 278 277 277 277 269 270 276 281 273 267 274 274 276 277 276 277 278 277 278 278 278 278 278 278 278 278
314 314 314 315 316 313 301 299 307 303 298 302 307 307 305 307 305 302 292 281 277 288 288 295 296 294 299 295 293 295 281 284 292 293 292 294 292 296 286 284 286 288 288 286 279 280 285 284 281 280 279 278 276 276 280 279 274 273 280 279 279 279 278 278 278 277 275 277 279 280 277 270 268 273 276 276 275 275 275 276 277 277 277 277 277 277 277 278
314 314 315 315 316 312 304 304 305 302 302 307 305 306 305 304 303 300 285 271 271 292 288 290 296 300 295 295 294 288 287 292 286 291 292 293 293 291 287 284 283 283 287 280 272 283 285 281 280 279 278 277 277 280 281 282 278 276 280 281 280 279 279 278 277 275 276 275 272 274 278 272 268 273 276 276 273 273 274 274 275 276 277 277 277 277 277 278
314 314 315 315 316 315 308 305 304 306 306 305 304 306 307 302 298 290 281 269 284 289 301 293 302 296 294 296 292 291 291 291 285 290 292 294 293 291 283 288 285 283 285 282 275 281 284 283 283 282 278 278 281 280 280 282 277 278 281 280 280 279 278 278 276 275 273 272 266 273 276 269 268 273 273 274 273 273 273 274 275 275 276 276 276 277 277 277
314 315 315 315 309 305 303 305 305 305 306 306 305 304 304 300 293 283 274 268 289 283 294 294 291 287 291 289 287 289 287 289 291 292 293 289 290 290 290 292 287 283 281 285 281 282 284 287 287 283 281 282 281 279 281 281 280 280 279 278 276 275 274 275 275 273 270 264 269 274 275 273 264 272 270 270 272 272 274 275 275 275 276 276 276 277 276 277
315 315 315 312 300 303 306 302 304 305 305 305 305 303 299 292 283 276 268 277 289 289 292 289 288 291 285 283 281 285 287 287 289 289 286 288 286 287 285 283 284 279 278 278 279 283 285 282 282 282 286 284 283 280 282 280 281 280 276 275 273 271 272 270 271 270 262 262 270 272 273 274 265 267 270 274 274 274 273 272 273 274 275 276 276 277 277 276
313 312 312 308 308 309 306 303 305 304 305 303 304 300 291 281 282 273 273 291 281 282 282 282 286 285 284 285 281 281 282 283 286 285 281 278 279 280 280 276 278 271 272 274 274 280 280 279 280 283 285 283 280 275 274 277 278 276 273 274 268 262 264 259 263 261 260 263 271 272 274 271 269 270 272 273 274 274 275 275 275 274 275 275 276 276 276 276
312 311 312 308 308 303 303 304 304 304 304 305 300 292 285 277 270 277 277 281 280 285 282 286 285 285 284 281 279 282 285 281 284 285 284 282 279 279 281 281 280 277 271 274 275 273 273 280 280 282 283 284 279 274 273 271 272 276 273 267 261 259 257 258 258 261 261 269 272 273 274 270 269 271 273 273 274 275 275 276 276 276 275 276 276 276 276 276
312 312 302 305 303 304 303 304 304 303 304 299 292 287 280 272 272 286 278 280 282 286 286 286 284 283 281 278 282 282 279 284 282 282 282 280 277 276 277 281 281 278 276 275 272 271 265 269 276 278 276 281 280 278 279 275 275 274 277 274 265 263 261 258 261 260 263 266 271 273 267 261 264 269 273 275 275 276 277 277 277 276 276 276 275 275 275 275
312 308 303 304 305 305 304 303 303 303 300 295 289 283 275 273 275 276 278 279 281 284 285 285 284 281 281 280 283 283 281 279 282 280 279 277 277 275 277 278 280 279 277 271 271 271 276 272 277 282 280 280 281 282 280 278 273 276 276 274 269 266 268 261 262 263 262 264 266 266 265 267 268 274 275 276 277 277 278 277 277 276 275 274 274 274 274 274
310 307 309 304 302 304 303 304 302 302 298 292 282 277 273 276 276 280 280 287 285 281 281 282 280 278 277 279 281 279 285 279 281 278 278 277 279 277 279 279 277 279 275 269 270 268 271 270 279 281 282 279 279 282 282 279 265 273 272 268 273 274 274 265 268 271 270 264 262 267 268 271 273 274 274 277 276 277 276 277 276 276 275 273 273 273 274 274
304 306 298 301 302 303 303 303 303 301 298 289 280 276 278 280 283 282 287 284 285 283 281 276 276 278 275 275 278 277 280 282 280 277 275 278 275 279 278 279 281 279 279 277 271 274 267 272 277 278 278 281 280 280 282 281 277 272 265 270 275 277 276 269 262 261 262 261 263 270 267 263 265 261 274 274 273 274 274 275 276 274 273 272 272 272 273 273
301 299 299 300 301 303 302 301 302 300 293 284 279 286 282 281 286 285 285 283 284 284 278 277 278 280 275 275 275 275 280 275 279 276 276 278 275 281 278 278 280 280 280 280 270 272 275 266 273 278 280 282 280 279 277 281 280 279 275 277 273 262 265 267 262 259 257 257 260 263 266 267 265 267 271 272 272 272 272 272 271 271 271 271 272 272 273 273
301 298 293 298 304 302 303 301 301 296 287 280 280 282 284 283 285 284 285 285 284 283 277 280 277 281 278 274 277 277 278 273 276 277 274 277 273 280 279 280 278 280 281 281 275 277 276 267 271 278 276 278 279 276 268 271 274 279 278 275 276 272 263 260 264 261 263 259 260 257 263 263 271 270 272 270 271 271 271 271 271 272 270 270 272 273 274 274
299 295 289 299 304 301 300 300 295 289 284 281 279 279 284 283 285 286 284 286 283 281 281 279 281 275 279 279 278 275 278 278 276 277 275 278 275 281 278 281 279 281 281 281 278 279 272 274 263 271 276 275 271 274 272 273 269 271 268 267 269 266 274 268 266 265 263 259 259 259 257 264 270 273 270 269 271 272 271 271 270 271 272 273 273 272 273 273
297 292 292 301 304 301 304 294 288 282 281 283 281 283 283 284 286 285 288 288 286 288 283 281 280 276 279 276 275 279 278 276 277 274 277 278 275 271 281 282 282 279 279 275 275 276 267 271 265 270 272 271 274 276 278 276 276 273 273 270 270 265 266 264 263 267 263 264 261 259 261 264 272 275 273 271 272 271 273 273 273 272 271 271 271 272 272 273
292 285 290 300 305 303 295 285 283 282 280 278 280 284 285 293 284 283 284 283 286 284 285 281 281 279 278 279 280 278 278 276 276 275 278 273 278 276 280 281 281 281 277 274 273 278 275 274 272 266 271 274 275 277 279 278 278 276 274 273 272 268 263 264 261 261 261 263 261 261 259 259 270 274 274 270 271 271 272 271 271 271 270 271 272 272 273 273
288 287 297 298 301 297 290 281 281 281 279 283 286 284 285 285 283 284 283 284 283 284 282 281 282 279 281 280 279 278 278 275 278 276 278 276 277 281 281 280 281 279 277 272 275 277 285 267 264 270 272 273 276 275 276 277 276 272 272 273 271 267 265 265 264 261 261 259 261 259 260 261 270 273 269 269 270 269 267 271 271 271 271 271 272 273 273 274
290 290 293 300 304 298 287 279 278 278 279 284 283 283 286 285 283 283 283 283 283 281 280 281 281 282 281 281 279 278 280 272 278 276 276 277 276 282 281 279 280 278 275 273 271 276 267 268 270 261 261 266 268 268 271 273 274 271 269 272 272 270 268 263 264 262 261 264 266 261 258 262 266 273 270 270 270 271 272 271 271 271 272 272 272 273 273 274
289 291 291 295 297 294 286 283 282 278 280 281 282 282 282 282 285 285 283 282 283 281 280 279 282 282 280 281 280 279 279 276 274 277 275 277 278 281 280 279 279 278 280 280 285 277 269 269 265 261 260 260 261 262 263 264 268 271 272 272 271 267 265 265 262 261 259 262 263 258 260 270 270 271 270 271 271 271 272 271 273 272 271 272 272 273 273 273
289 280 287 286 290 290 288 285 284 281 281 278 278 281 279 281 284 285 283 282 283 281 280 282 281 280 278 279 278 277 277 278 276 273 269 272 274 279 281 279 280 279 283 287 281 277 269 273 272 267 262 264 266 269 272 274 271 267 269 269 267 268 265 263 259 259 261 259 260 263 265 265 267 269 269 270 270 270 270 271 272 272 272 273 273 273 273 273
289 283 283 281 286 287 283 283 283 281 281 281 278 281 278 280 282 281 284 280 282 282 281 280 279 277 276 276 276 276 276 278 277 272 272 270 273 278 280 280 280 280 285 282 280 273 266 264 268 271 270 271 272 272 273 273 270 271 269 268 266 266 265 264 263 264 263 260 260 266 265 261 265 268 269 269 270 270 271 271 272 272 272 272 273 273 275 273
285 283 286 287 285 282 281 283 282 283 283 280 280 282 279 279 278 276 282 282 282 279 280 280 279 278 277 277 277 271 274 276 274 270 271 273 275 274 278 279 278 281 279 277 275 269 263 264 267 268 264 269 272 272 272 272 271 272 271 270 267 267 265 263 260 265 266 260 262 265 265 263 266 268 269 270 270 270 271 271 272 272 272 273 272 272 272 272
288 285 286 287 283 282 281 285 284 283 282 279 280 280 278 277 276 279 279 279 280 278 278 273 278 278 278 277 275 271 274 268 269 272 269 269 271 270 271 275 279 276 275 275 275 270 267 264 266 267 267 270 271 271 272 271 271 271 269 270 271 268 266 266 264 267 267 264 267 266 264 264 267 268 270 270 271 271 272 272 272 272 272 272 272 271 271 272
283 282 283 285 281 280 282 283 283 282 281 282 277 280 279 278 277 279 278 278 274 278 279 278 278 279 278 276 275 269 274 276 273 268 274 272 269 271 270 272 270 274 274 275 274 272 268 265 272 265 264 266 269 269 268 270 269 268 271 270 269 268 268 267 264 266 266 264 265 264 263 263 268 270 270 271 272 272 272 271 271 271 272 271 271 271 271 271
290 287 287 286 280 280 281 281 281 279 277 278 278 282 280 278 277 278 278 280 278 277 278 278 278 278 278 276 276 276 278 278 278 277 278 277 270 277 271 272 276 271 272 269 270 268 266 264 263 263 263 265 269 269 270 270 270 268 268 268 267 267 263 263 259 264 262 258 260 261 260 263 269 271 271 271 271 271 270 271 271 271 271 271 270 271 271 271
290 291 290 285 280 282 280 280 278 278 276 279 280 280 279 279 278 278 276 280 279 279 279 279 279 278 277 274 276 277 278 278 279 279 280 278 280 278 278 277 276 273 269 269 268 268 264 262 264 261 263 263 269 269 269 269 266 263 259 265 268 266 265 265 266 266 266 265 259 258 261 267 269 271 269 270 270 270 271 271 271 271 271 271 271 270 271 271
Wind_Speed
6 6 6 6 5 4 2 2 4 6 5 4 2 5 7 9 9 4 8 9 6 4 14 6 6 9 5 7 6 6 6 2 3 1 1 3 1 2 2 3 1 3 5 3 4 2 4 3 4 5 3 0 2 0 4 2 1 2 1 2 4 6 4 4 1 2 2 1 2 3 3 6 4 6 3 2 4 0 1 1 4 4 3 3 4 4 7 7
6 7 6 6 6 5 3 3 4 4 2 1 4 6 6 8 11 12 10 12 9 12 10 5 2 6 5 6 6 6 4 1 3 4 6 0 2 2 3 3 3 5 3 2 2 3 4 4 3 2 3 1 1 2 2 1 4 3 1 3 7 3 6 2 2 5 2 2 3 4 3 4 2 3 4 4 5 3 5 4 5 8 7 7 7 6 8 6
6 7 6 7 6 6 5 3 5 4 1 3 4 4 6 7 8 9 10 11 10 8 6 5 4 4 5 5 6 6 2 2 1 4 1 3 2 3 1 4 5 4 2 0 2 2 3 5 6 1 2 2 2 4 1 2 3 3 3 5 6 5 4 5 4 2 1 1 4 6 5 6 5 2 2 2 6 5 5 4 5 4 5 5 1 6 6 6
7 7 7 7 7 6 7 5 4 4 2 3 4 4 5 7 8 9 9 8 7 6 6 5 4 3 4 5 5 3 0 1 0 0 1 1 3 1 4 5 4 2 0 1 3 4 5 5 5 2 1 1 3 0 2 4 2 2 4 4 5 3 3 6 9 2 2 3 0 2 4 5 4 2 3 4 6 6 1 4 4 4 7 5 2 5 5 5
6 6 6 6 6 5 5 6 6 4 3 1 2 3 4 5 5 6 6 6 5 5 5 4 4 2 3 4 5 0 0 1 0 0 1 1 1 2 4 4 4 2 1 3 6 5 4 5 2 1 0 3 2 3 3 4 5 2 7 7 5 4 5 5 3 3 1 1 3 3 6 4 3 4 1 1 3 9 1 2 5 5 5 5 12 13 14 17
6 5 5 5 6 5 4 2 4 6 4 1 1 2 2 3 4 5 5 5 4 4 4 4 2 2 2 4 2 0 0 1 1 0 1 2 1 3 3 3 3 2 3 4 1 6 4 3 1 0 1 1 3 2 5 4 1 5 4 3 4 2 3 2 5 4 1 1 2 3 2 1 4 5 2 5 7 7 4 3 4 6 13 17 19 18 18 18
7 6 6 6 6 5 3 2 2 3 4 2 0 2 2 3 4 4 3 4 4 4 4 3 2 2 4 3 1 0 1 1 1 3 1 3 0 3 3 3 2 3 3 3 4 1 2 2 0 3 1 2 5 4 5 2 1 0 3 1 6 5 9 10 5 5 5 5 4 3 0 1 4 7 0 4 7 6 6 5 8 18 18 21 22 18 16 16
8 7 6 6 6 4 3 4 4 4 3 3 2 2 3 4 4 3 3 4 5 5 3 2 1 1 2 0 1 0 1 2 2 3 4 2 1 2 1 2 0 1 2 3 4 4 3 3 3 1 2 1 2 3 3 6 5 4 4 1 3 3 4 5 6 7 6 6 5 2 3 6 3 3 4 9 11 7 6 14 17 20 21 21 22 19 17 19
10 8 7 7 8 10 9 8 7 5 2 3 1 1 2 3 2 3 4 5 5 5 3 2 1 1 1 0 0 1 2 0 6 5 4 3 3 3 4 2 1 1 2 4 4 2 2 2 3 2 2 4 2 6 6 3 6 0 2 2 3 5 7 7 9 9 6 5 4 4 5 4 4 1 3 9 6 16 18 20 17 20 22 18 17 18 18 17
10 10 10 8 7 9 10 8 7 7 7 5 4 1 1 2 3 4 5 5 5 4 4 2 2 2 1 1 1 1 1 2 3 5 5 3 2 2 1 5 2 3 3 4 4 2 0 1 0 2 1 2 1 2 3 0 4 1 5 5 5 8 7 6 7 9 6 4 3 3 7 3 2 5 3 5 11 13 21 17 17 19 19 18 16 16 16 19
9 9 9 9 8 8 9 8 7 7 7 5 2 1 2 3 4 5 5 5 5 5 4 3 2 2 1 1 2 1 0 2 2 3 5 2 1 1 1 2 1 3 4 5 3 6 1 3 2 3 1 2 4 7 3 2 2 5 3 6 7 9 8 10 9 13 2 4 2 3 4 2 0 2 5 9 8 15 20 17 17 17 15 15 17 16 15 16
8 7 8 8 8 7 7 8 7 7 5 2 0 2 3 3 4 4 5 5 4 4 4 4 3 1 0 1 1 2 3 3 3 3 3 3 1 5 3 3 0 0 1 3 3 4 4 2 4 2 2 1 3 2 4 2 1 3 3 7 8 7 8 6 5 4 5 3 2 3 2 6 4 5 12 9 11 17 19 18 15 16 15 14 14 15 16 15
7 7 7 7 7 6 5 5 5 5 3 3 2 1 2 3 4 4 4 3 4 5 5 6 3 0 2 1 3 3 2 0 0 1 2 1 0 1 1 0 1 1 1 2 3 2 4 3 4 2 2 2 1 1 2 1 4 2 3 3 7 6 8 10 1 0 5 0 3 4 2 5 9 8 8 7 10 19 20 16 14 12 14 14 15 14 15 16
6 6 6 6 5 4 4 4 4 4 4 3 3 2 3 3 4 4 5 4 6 5 6 5 0 1 2 1 1 3 2 3 2 3 2 3 3 4 1 2 3 2 1 1 3 2 2 1 1 1 1 1 2 3 6 4 1 2 4 0 3 4 5 5 1 1 6 1 1 3 1 0 4 8 8 9 13 21 17 13 13 13 13 13 13 14 14 15
6 6 6 5 2 3 3 4 4 5 4 4 3 3 3 4 4 4 4 4 6 6 7 5 2 3 2 2 1 3 3 1 2 1 0 2 2 3 0 3 3 4 1 0 1 1 0 2 3 1 2 3 1 2 5 2 2 2 1 3 3 2 6 6 5 2 2 0 2 5 2 2 3 6 8 8 13 18 17 13 13 13 13 13 12 13 13 12
5 4 5 3 3 4 3 4 5 5 4 4 3 4 4 4 5 5 4 4 5 4 2 2 0 1 1 2 0 1 2 0 1 2 1 2 1 2 2 3 3 1 0 2 2 1 0 0 1 3 1 2 1 1 3 5 3 2 2 3 3 0 5 5 2 2 5 2 1 0 2 5 3 6 8 8 15 16 16 13 12 13 12 11 12 11 11 11
4 4 4 2 4 3 4 4 5 4 4 3 3 3 4 4 4 3 1 3 2 1 1 1 0 2 1 0 0 0 1 0 1 0 2 0 0 1 3 3 1 3 1 2 1 0 1 1 1 2 0 2 2 1 2 3 4 2 1 3 2 2 3 4 4 3 1 5 1 1 2 5 6 7 8 9 11 16 15 12 12 11 10 10 9 11 12 12
4 4 3 3 3 4 4 4 3 2 3 3 1 2 1 1 0 1 1 1 1 1 1 2 1 3 2 0 0 1 1 2 1 2 1 1 1 2 0 0 2 4 0 1 0 1 0 1 1 3 1 1 1 1 3 2 1 3 3 4 7 2 1 5 2 3 1 0 2 2 2 9 7 8 10 10 10 16 13 11 10 10 10 9 9 10 11 12
3 4 3 4 4 4 3 3 2 2 2 1 2 3 3 2 1 1 1 0 1 1 1 0 1 1 1 0 1 4 1 5 1 2 1 1 1 1 1 1 1 1 1 1 2 3 0 1 2 3 4 3 2 4 5 5 0 4 3 3 2 4 6 8 4 1 1 0 1 1 3 7 7 8 9 10 10 14 11 9 9 9 9 10 10 9 10 10
3 2 3 4 4 4 3 1 2 3 3 3 0 0 1 1 2 1 1 1 0 1 1 1 1 2 1 4 2 3 1 4 3 2 1 2 2 4 2 2 1 0 0 1 0 2 2 1 1 6 7 5 4 3 5 4 1 0 0 1 4 4 6 5 4 2 1 2 2 4 2 6 6 7 6 7 8 11 10 10 10 9 10 10 10 10 10 11
2 2 2 4 3 3 3 1 2 3 2 2 1 1 0 1 1 1 1 1 1 1 0 1 0 1 0 1 1 3 1 2 1 0 1 1 0 1 2 1 1 1 3 4 2 1 3 2 5 5 6 5 3 2 1 2 3 4 4 4 7 2 6 4 2 1 1 3 1 1 10 5 7 6 5 4 11 11 8 9 10 10 10 10 11 11 10 9
2 1 2 2 2 2 3 2 2 3 2 1 1 1 0 1 0 1 1 1 1 2 4 1 2 1 2 2 2 2 4 1 2 4 3 5 1 1 1 0 0 3 4 1 1 2 1 4 6 3 3 2 3 5 5 1 2 4 2 3 3 6 5 5 1 1 0 3 6 1 9 5 7 7 6 9 10 8 8 9 10 9 10 10 10 9 9 9
1 0 1 2 2 3 3 3 1 2 1 0 0 1 1 1 3 1 2 2 0 1 1 2 1 1 0 2 1 2 1 2 0 2 4 4 3 1 1 2 3 1 2 2 4 1 4 2 3 3 3 4 3 6 6 4 3 1 6 3 4 4 4 4 5 2 4 0 4 2 11 7 6 7 9 6 9 9 10 11 11 10 10 10 9 8 8 9
1 1 2 3 3 4 5 5 4 1 2 2 0 0 0 1 1 3 2 1 1 1 0 1 0 0 0 0 1 1 0 1 1 3 3 2 1 2 1 0 1 2 1 1 2 2 3 1 2 3 2 2 2 5 8 7 5 3 1 2 1 3 2 3 6 5 5 5 3 3 9 5 2 5 6 5 6 9 8 9 9 9 8 7 6 8 8 8
1 1 3 4 4 5 6 6 2 5 1 2 0 0 1 1 2 1 3 1 2 0 1 2 2 1 1 1 1 0 0 1 1 1 2 2 3 2 1 1 1 0 1 1 3 4 2 1 1 4 5 5 3 3 4 3 6 5 1 1 1 2 4 6 5 10 8 6 2 3 3 1 2 4 6 6 5 8 5 9 9 8 8 6 7 7 6 6
2 3 4 4 4 6 6 2 3 1 3 1 0 1 1 1 1 1 3 2 0 1 2 1 0 1 1 0 0 1 1 1 2 2 0 2 2 1 1 1 1 1 2 4 1 1 1 3 5 2 2 5 6 3 1 3 0 2 2 4 3 3 3 5 6 4 4 2 3 5 0 3 4 2 4 4 7 8 5 7 7 6 6 6 5 5 5 5
3 5 6 6 5 8 3 1 1 1 1 1 2 4 2 1 1 2 3 2 1 0 1 0 1 1 2 1 2 2 1 2 1 2 2 3 2 1 2 2 2 1 1 0 3 0 2 4 7 6 5 5 5 5 2 2 2 1 1 1 3 6 7 7 2 2 6 2 8 1 5 5 3 4 4 4 7 5 5 6 6 5 6 4 4 4 4 4
5 6 7 7 9 5 1 0 3 0 1 1 3 3 2 0 1 3 3 2 0 1 0 1 0 2 1 2 4 2 2 1 2 2 1 1 1 2 2 0 1 2 2 3 2 1 1 2 3 4 4 5 3 0 1 0 1 3 2 3 6 5 9 5 2 4 2 2 9 5 1 1 1 2 5 2 6 4 5 5 4 4 4 4 3 3 2 3
5 8 8 7 6 4 1 1 0 1 1 2 2 3 1 1 4 4 2 2 0 1 3 1 2 1 2 3 3 1 0 0 3 1 2 1 1 1 1 0 0 2 2 4 2 1 1 0 0 3 3 3 1 1 1 2 2 3 2 4 4 4 4 3 2 2 2 2 6 6 4 1 0 6 6 2 4 3 4 3 3 3 3 3 3 3 3 3
5 8 8 8 5 2 2 1 1 2 1 2 2 2 1 3 3 2 1 1 0 0 0 1 2 4 2 1 2 5 4 2 1 0 4 3 10 3 0 0 1 2 2 2 2 4 1 2 4 4 1 0 1 3 2 1 3 3 4 3 5 4 2 2 2 1 2 1 6 2 3 4 3 8 5 0 1 2 2 2 3 2 2 1 1 1 1 2
5 6 8 7 3 2 0 1 1 1 2 3 2 1 3 4 2 2 1 1 2 0 1 3 1 4 3 3 1 4 2 1 2 2 2 6 12 8 6 2 5 3 5 4 2 4 1 2 2 1 1 2 1 4 3 1 0 2 3 3 6 6 7 3 3 3 1 4 6 1 7 7 9 1 2 1 1 4 4 3 2 2 2 2 1 1 1 2
7 6 4 1 1 1 0 1 1 1 2 1 1 2 3 1 2 2 2 1 1 2 2 2 1 1 2 0 4 3 2 3 1 3 3 2 7 10 7 6 5 4 5 3 4 3 1 2 2 5 2 3 1 2 5 5 5 8 5 8 8 5 6 5 5 3 1 4 7 4 9 9 3 0 5 4 4 3 3 4 1 1 2 2 3 2 3 3
5 5 6 4 1 2 0 1 1 1 2 0 2 2 3 3 1 1 1 1 0 1 2 2 1 1 0 2 3 2 1 2 2 3 3 1 6 4 5 7 3 1 1 3 3 7 2 2 5 3 3 1 1 6 6 6 6 7 5 3 4 3 2 2 5 1 2 7 5 7 3 5 2 0 4 5 4 4 4 2 4 2 1 2 4 3 3 3
6 3 3 1 3 2 1 1 1 0 0 1 3 4 5 4 1 1 0 1 0 1 2 1 3 3 3 2 1 1 2 1 2 2 3 1 5 3 6 7 8 7 3 2 4 1 2 3 2 2 2 1 2 2 0 3 3 3 1 1 3 2 1 2 2 2 6 8 8 5 2 3 1 1 6 6 6 5 4 4 3 3 1 1 4 3 3 3
5 2 5 0 1 0 3 3 2 1 1 3 6 3 3 1 0 0 0 2 2 2 0 1 1 2 1 2 1 1 1 0 2 4 7 4 3 2 4 6 7 3 1 2 1 1 0 6 3 2 1 1 2 0 2 1 0 2 1 4 4 1 4 3 5 4 5 7 7 4 1 2 1 3 4 5 4 3 3 2 1 1 1 1 4 4 3 3
2 3 2 1 1 1 3 2 1 1 2 6 6 5 2 1 0 1 0 1 1 1 5 3 4 3 1 1 0 3 4 2 3 4 2 4 1 3 2 1 4 5 4 2 1 2 4 2 1 5 1 0 0 0 1 2 1 4 4 1 2 4 4 1 5 6 1 3 6 2 1 3 2 2 3 5 3 2 2 2 1 2 2 2 4 4 4 4
0 0 2 0 1 1 3 2 1 2 6 6 5 1 2 0 0 1 2 1 0 0 1 1 3 1 2 1 2 5 4 2 1 1 1 1 3 3 3 1 3 6 3 1 3 2 1 8 8 2 3 1 1 0 0 0 2 2 1 3 3 2 2 1 4 4 2 5 6 4 9 3 4 4 6 4 4 3 4 2 2 3 2 3 4 4 4 3
1 1 1 1 0 2 3 2 1 4 4 7 4 3 1 2 1 0 1 2 1 1 2 2 0 5 1 2 5 3 7 5 7 3 2 1 1 1 3 3 4 6 5 3 3 2 2 4 5 1 0 3 3 1 3 0 1 1 1 1 3 2 7 4 4 3 4 5 7 4 7 7 4 3 3 4 3 6 7 10 3 4 3 5 4 4 3 3
1 1 2 2 1 2 2 3 3 4 3 7 1 3 1 1 1 0 2 3 1 0 2 1 1 2 1 2 1 2 3 2 2 3 2 2 2 2 3 1 3 6 5 2 2 3 1 1 6 1 4 4 1 4 2 3 3 2 2 5 1 3 3 1 1 2 1 7 5 5 4 8 3 4 5 1 3 5 8 9 6 4 4 3 4 6 7 6
1 2 2 1 1 2 3 1 6 7 7 4 1 1 2 1 1 1 1 1 1 2 0 1 3 2 5 2 2 0 3 2 2 2 4 3 4 1 2 4 2 8 7 2 1 1 1 2 2 5 7 4 4 1 1 1 1 4 6 4 5 1 2 3 2 2 4 5 5 6 6 2 2 3 4 5 2 2 8 9 5 2 3 3 4 6 7 5
1 2 1 1 1 3 2 8 9 5 5 0 2 2 2 0 0 2 3 3 0 1 2 2 1 3 0 1 4 2 1 3 3 2 1 1 2 0 0 1 2 4 4 4 6 3 1 3 2 6 7 2 3 2 2 2 1 2 0 0 3 2 9 8 10 1 0 2 5 5 13 5 4 3 6 4 0 4 8 5 3 3 4 4 5 5 5 7
1 1 1 2 0 2 5 7 4 1 4 4 1 0 0 1 1 2 2 3 2 1 2 4 3 3 3 2 1 3 2 2 3 2 2 2 2 2 2 5 3 2 1 0 1 1 1 1 1 4 3 7 5 3 1 2 5 4 4 3 2 1 4 1 8 6 3 3 1 3 4 5 4 1 5 3 2 3 6 2 1 3 4 4 4 5 6 6
3 2 3 4 1 5 9 5 3 5 3 0 1 2 2 1 2 1 3 4 2 2 2 4 1 1 1 1 1 2 2 2 1 2 1 2 1 0 4 6 4 5 2 2 1 1 3 1 2 5 6 4 3 4 3 4 4 4 4 3 2 3 4 6 5 4 3 3 4 3 4 4 5 2 4 1 2 3 3 3 3 4 4 4 6 10 13 13
1 1 2 2 2 3 5 2 2 2 3 1 3 1 3 1 2 3 2 3 2 3 2 1 3 2 1 0 1 1 0 2 2 3 2 1 1 3 3 6 3 2 2 1 2 4 2 2 3 4 5 6 6 6 4 6 5 1 4 2 1 1 2 0 1 1 0 5 7 4 11 6 2 5 3 2 6 12 10 4 4 10 8 7 8 9 10 11
1 1 2 4 8 5 2 4 9 4 2 4 2 2 1 3 1 1 0 2 2 2 1 1 1 0 1 0 1 1 3 2 1 2 3 1 1 1 3 6 4 2 1 3 4 1 1 2 3 1 3 7 10 10 8 7 6 5 1 2 1 5 3 2 4 1 2 2 3 2 6 5 1 3 6 8 9 11 7 5 8 6 4 8 10 11 12 11
0 1 2 5 7 7 5 2 5 7 6 3 4 1 3 2 1 2 5 2 1 3 4 0 1 3 3 2 2 3 3 4 3 1 2 1 1 1 3 2 3 1 2 4 1 2 0 0 1 4 4 6 8 6 5 3 7 6 12 7 7 1 2 3 3 2 8 3 3 8 7 10 10 10 10 10 10 11 9 9 11 8 8 11 12 12 11 11
1 2 0 1 2 7 3 3 4 3 4 4 3 1 4 1 1 2 2 1 2 1 2 4 1 2 3 3 1 1 1 1 4 5 0 1 1 1 4 3 1 2 2 1 4 2 2 1 1 2 1 5 5 8 9 6 8 11 11 9 3 4 6 5 5 12 3 2 11 3 3 3 11 11 10 10 10 9 9 11 10 8 11 14 14 13 13 14
2 1 2 1 3 2 4 2 2 5 2 4 1 1 2 1 2 1 3 1 0 3 2 3 6 3 2 1 1 1 3 1 2 0 1 0 1 5 1 2 3 4 3 0 2 3 2 0 5 3 7 6 9 10 11 8 6 9 10 8 6 6 5 8 7 7 3 4 12 8 6 7 12 10 10 10 8 8 12 13 10 10 13 14 14 14 15 17
3 1 1 0 2 1 1 1 4 7 7 3 2 3 1 3 3 0 1 2 1 3 2 2 1 2 3 2 2 1 0 1 1 0 3 1 1 1 1 2 0 4 3 1 1 1 2 1 4 3 5 5 8 8 7 5 6 8 6 8 6 6 7 6 6 3 6 7 7 7 7 12 11 9 11 11 6 10 12 9 10 13 15 15 14 15 16 18
1 3 1 3 5 3 1 2 3 6 6 2 4 1 2 1 3 0 2 2 1 1 3 6 1 1 2 4 2 2 2 2 2 1 2 1 3 1 1 2 1 2 2 1 0 3 4 2 6 3 3 5 5 6 4 6 7 10 11 6 3 3 1 3 1 1 2 3 3 6 9 13 9 7 9 6 9 10 11 12 13 13 14 14 14 15 17 17
1 1 5 8 5 3 2 2 3 5 4 5 5 0 4 0 2 2 1 0 1 1 1 3 0 0 1 4 3 1 2 1 2 3 2 2 2 1 2 2 2 1 3 1 1 3 3 3 2 1 6 9 2 3 9 9 9 10 11 7 4 2 4 3 1 1 1 7 5 7 9 10 9 7 8 9 10 12 14 15 13 12 12 13 14 17 14 12
2 1 4 6 5 1 2 1 3 4 3 1 2 0 2 1 4 3 3 1 2 2 2 1 0 2 0 2 0 2 2 2 3 2 2 3 1 2 1 2 2 2 0 0 0 1 1 1 2 2 5 7 6 5 10 9 8 7 4 3 2 1 1 2 1 3 3 2 4 7 10 8 12 9 10 11 11 14 15 13 13 13 14 14 15 11 12 15
Wind_Direction
268 273 275 282 281 267 227 266 284 273 257 132 176 197 220 220 215 195 246 247 265 344 286 294 6 328 309 303 309 315 341 17 334 301 145 249 155 152 162 240 233 46 43 25 342 352 301 255 265 254 262 81 262 299 242 269 207 77 158 160 249 228 256 244 278 346 240 25 284 67 69 62 359 338 286 350 321 280 323 315 289 317 273 292 294 110 117 122
273 280 288 294 301 302 319 305 280 274 281 272 183 201 210 222 218 207 209 235 206 218 257 284 300 265 301 308 321 322 9 24 281 273 246 105 229 215 211 134 66 64 50 32 333 303 313 312 275 260 210 240 238 208 165 253 156 149 220 162 233 208 237 241 316 356 41 310 313 346 59 82 297 355 319 342 303 347 349 324 329 306 328 344 54 75 99 106
285 286 295 304 314 318 316 297 287 285 277 250 225 198 204 216 226 227 218 224 233 242 253 260 271 291 305 321 318 330 358 324 286 263 217 245 269 245 110 78 71 81 87 337 289 290 292 288 289 336 248 231 276 238 207 258 162 228 173 234 241 228 263 308 324 328 112 54 10 359 334 14 295 1 326 309 290 312 296 301 316 333 307 328 43 119 130 128
297 299 306 309 315 319 310 308 294 292 275 239 236 214 207 209 217 222 220 226 233 241 247 257 265 294 312 310 322 323 61 351 289 235 301 169 245 234 60 61 63 80 14 230 256 292 283 297 296 302 298 219 286 194 136 249 130 256 161 203 233 223 356 295 317 330 35 75 224 329 331 356 311 295 339 296 329 299 243 234 214 273 312 330 70 162 132 129
287 287 289 290 289 282 279 297 314 309 294 225 226 223 210 212 223 230 223 224 231 238 247 254 272 286 304 317 315 350 337 35 286 81 209 220 146 54 55 62 65 54 50 278 325 291 266 264 308 330 133 269 316 350 235 244 193 168 200 202 210 284 296 284 309 187 50 191 49 348 345 285 294 343 335 359 292 277 160 307 318 305 284 323 22 47 36 31
292 287 291 292 290 285 286 303 315 306 303 285 174 217 237 231 229 231 226 222 231 244 248 255 271 301 312 305 17 78 117 91 232 174 102 218 214 55 50 40 46 66 36 358 310 291 301 305 255 350 310 157 255 194 265 238 159 238 304 261 257 239 248 266 295 240 328 333 328 333 242 258 319 283 271 265 243 259 243 253 275 336 28 52 54 46 40 34
306 311 311 307 297 288 300 331 312 271 284 305 51 183 194 225 229 232 229 225 233 239 244 257 283 283 295 334 259 94 113 280 50 275 348 252 350 71 29 13 30 16 29 349 312 276 315 285 192 229 222 233 265 230 265 294 19 231 244 285 293 293 287 284 287 296 341 3 304 223 45 292 295 315 249 285 261 242 276 293 33 62 53 46 51 45 45 40
313 315 317 309 299 307 1 8 346 331 321 294 233 195 184 205 215 216 223 227 225 228 230 242 222 302 310 21 71 30 68 263 255 216 215 237 248 118 45 347 95 359 348 247 253 326 1 348 297 285 252 182 246 348 285 346 352 322 287 291 288 328 266 304 300 317 315 298 261 273 270 253 204 243 355 295 300 312 19 53 59 56 53 48 48 43 38 33
318 322 329 327 335 343 358 5 347 334 284 235 220 212 172 194 203 215 219 219 217 215 215 187 188 212 225 119 113 41 283 284 183 184 187 194 218 130 66 4 112 203 256 295 271 279 60 288 22 91 273 352 305 347 322 33 319 266 250 325 310 297 297 300 305 294 298 293 283 310 263 275 238 298 333 287 10 66 66 53 55 58 54 51 47 44 40 36
320 327 331 335 352 349 350 354 346 338 340 13 11 332 196 188 195 212 220 214 215 206 197 185 151 216 80 73 28 66 264 269 136 171 197 173 130 73 350 244 308 253 297 297 331 329 94 254 38 288 97 280 312 255 324 45 223 256 309 317 307 284 301 282 264 277 260 242 251 264 284 284 319 95 284 39 47 67 66 59 52 60 58 53 49 45 40 39
318 326 328 335 354 359 347 343 352 359 6 11 335 221 204 195 191 206 214 208 203 199 181 164 169 148 84 106 97 156 265 68 172 149 157 161 99 84 265 318 304 8 354 324 346 288 249 61 355 352 42 218 350 301 353 249 311 320 322 323 308 298 284 270 270 264 246 301 185 157 274 7 316 96 230 61 57 66 70 61 54 58 58 52 50 47 40 42
317 325 328 338 351 359 353 347 352 14 22 26 112 175 197 194 188 200 202 199 193 182 170 158 159 225 10 91 153 226 164 235 148 179 176 153 187 216 246 232 132 202 26 310 301 338 48 59 43 49 210 335 298 319 303 267 354 289 347 315 291 322 309 270 234 246 141 220 112 139 27 19 358 45 10 84 73 67 65 59 55 54 54 52 49 47 41 38
319 325 332 345 352 351 354 358 13 38 46 73 93 151 188 175 190 192 193 189 195 172 164 149 173 155 89 36 249 259 269 200 57 47 331 190 246 272 198 46 239 238 238 279 282 311 19 37 56 13 249 9 230 182 264 315 274 319 322 219 314 349 324 297 323 257 125 317 175 92 4 339 23 28 23 15 70 69 59 54 53 52 52 49 45 45 42 34
320 326 340 358 345 350 7 7 33 62 73 89 110 149 157 158 172 189 187 209 175 163 146 146 127 83 77 246 259 260 333 3 58 19 317 342 26 300 268 244 259 260 261 236 280 244 1 347 41 221 268 231 269 288 345 321 316 189 256 65 239 5 288 296 3 75 98 245 63 82 122 322 15 31 33 37 58 73 68 56 54 53 51 51 47 45 44 38
318 328 348 356 355 17 21 33 43 62 80 90 102 127 155 167 168 182 187 150 169 158 130 101 53 68 48 269 284 311 357 43 17 182 337 37 10 348 339 301 288 254 213 166 289 322 83 17 39 14 286 257 225 342 298 337 286 223 36 306 324 142 278 314 17 70 112 310 56 79 88 152 27 34 38 48 63 73 71 63 54 56 54 49 49 45 42 39
312 337 0 3 47 39 34 59 62 72 79 104 119 145 164 170 180 181 217 218 167 122 177 67 292 140 104 324 235 323 55 150 223 170 157 101 49 243 247 280 261 282 325 308 230 336 350 94 189 206 256 2 293 199 321 8 337 353 116 268 290 253 257 349 318 34 135 113 12 77 182 172 68 40 44 47 71 73 76 63 58 54 54 52 47 48 42 37
312 3 1 36 72 59 55 66 69 71 98 112 136 156 170 183 181 197 203 115 144 169 36 122 225 125 66 234 325 81 225 252 218 10 346 61 160 235 349 354 323 278 239 292 205 14 297 98 275 50 36 197 193 114 15 17 332 328 4 225 221 293 315 310 305 326 114 103 225 59 101 69 87 54 50 49 68 76 71 67 62 56 57 55 54 47 44 38
330 10 2 56 88 83 80 84 93 112 129 143 167 214 182 210 289 100 86 331 163 158 268 229 127 66 319 283 70 212 131 80 62 239 239 249 134 336 74 350 332 357 117 289 346 157 184 237 112 207 13 331 16 59 99 263 289 318 344 346 324 328 255 241 329 279 152 5 137 74 99 101 73 60 51 52 58 76 73 71 66 63 56 55 51 50 46 42
351 9 2 64 82 101 95 116 131 152 195 200 83 95 89 68 58 340 19 95 49 13 35 310 67 111 206 215 33 37 20 203 110 76 298 4 301 228 295 268 266 313 334 96 286 153 255 351 27 32 314 329 261 180 180 229 247 319 263 237 226 296 307 307 258 291 113 295 298 130 183 106 74 69 63 56 55 73 76 74 68 60 57 51 50 45 44 43
360 358 12 59 79 96 109 144 181 204 174 105 40 62 14 32 13 15 341 48 147 179 178 215 176 260 31 14 14 275 97 55 84 304 24 327 19 359 328 174 289 107 128 223 249 217 111 92 218 241 238 251 258 180 194 222 178 238 66 355 288 284 286 270 302 286 86 80 225 217 95 100 94 79 69 67 70 69 69 65 63 59 54 49 48 45 38 41
352 1 39 59 70 98 123 192 232 277 232 42 341 71 117 182 99 284 238 246 240 22 94 296 168 166 204 210 338 30 8 346 65 125 335 225 166 38 335 79 36 344 238 193 160 296 71 359 281 239 232 232 269 298 312 352 37 44 347 358 317 307 281 268 259 225 329 103 286 187 86 92 92 82 71 77 71 60 61 65 62 61 55 52 45 42 41 33
343 3 28 46 80 123 138 200 248 300 347 28 56 166 133 163 204 196 123 21 343 329 14 252 50 52 348 103 222 148 104 73 11 343 299 38 283 81 311 94 225 227 285 100 51 15 54 214 250 257 254 306 355 19 15 35 355 351 14 295 343 296 259 297 346 7 259 42 254 227 98 93 86 88 79 72 78 78 67 66 63 59 55 49 44 41 36 30
326 299 142 121 146 155 164 156 87 38 359 36 66 315 170 257 317 268 93 124 32 327 16 357 359 121 355 319 338 73 61 77 252 328 335 2 348 87 296 4 333 279 355 37 168 45 344 294 250 311 4 38 350 15 21 33 47 12 347 20 282 249 38 319 288 310 320 183 266 133 108 100 87 86 88 79 86 86 75 68 64 59 60 51 46 38 31 31
306 197 164 161 172 164 150 135 128 57 261 205 260 170 289 22 348 73 74 112 188 313 94 240 187 143 140 45 274 92 118 341 70 297 323 26 58 228 31 210 12 26 333 33 141 168 209 243 289 349 10 70 22 20 47 51 356 334 131 139 230 329 298 185 270 321 284 299 230 86 91 97 91 99 90 80 81 82 70 71 67 61 58 56 51 42 35 30
218 196 165 171 171 146 130 114 68 230 188 132 184 309 21 5 80 135 98 351 28 6 287 350 111 357 255 306 9 77 329 72 43 274 298 66 325 32 169 245 97 263 312 306 39 36 339 256 182 30 360 27 46 35 42 89 11 318 250 168 210 205 272 291 309 358 358 327 355 126 25 30 48 105 98 101 79 70 68 73 67 61 56 50 46 44 33 19
225 202 183 173 165 135 137 89 261 214 151 222 143 310 345 24 36 113 98 85 45 266 11 257 16 282 127 307 331 106 59 49 236 240 10 206 184 138 358 14 111 279 347 2 337 176 178 334 68 25 49 22 51 102 302 91 117 64 289 190 220 251 291 300 337 30 327 308 275 38 113 258 126 123 120 100 85 76 65 71 71 61 60 54 51 41 34 19
223 196 186 183 167 149 92 220 285 69 92 276 307 336 303 3 53 62 61 8 29 276 122 225 66 291 77 238 136 91 64 291 306 344 21 343 45 268 89 312 14 358 203 132 44 299 28 5 18 17 48 57 45 26 313 91 81 311 232 154 336 333 306 291 345 194 234 284 297 206 169 191 162 161 129 127 92 82 65 68 67 64 63 59 53 46 29 16
213 196 181 182 186 168 148 14 8 118 211 273 301 307 336 263 52 48 79 76 340 110 51 301 196 291 55 307 67 123 195 170 37 326 143 294 67 346 89 264 129 229 290 68 146 276 112 332 40 9 53 55 53 208 262 104 182 227 307 51 309 273 277 285 226 246 229 9 299 344 17 152 109 150 154 161 99 77 71 71 59 63 62 58 52 46 22 1
190 178 174 174 183 209 22 59 12 187 277 294 292 307 317 48 74 96 111 105 234 62 229 32 259 36 326 4 37 54 45 69 131 258 331 32 47 159 28 265 168 295 269 135 176 254 341 164 215 115 94 9 268 265 198 115 12 280 321 307 258 271 249 220 204 175 329 95 278 309 320 154 255 185 192 167 96 89 100 72 76 76 70 59 44 19 356 343
155 158 150 142 106 9 321 97 82 249 281 311 300 315 9 54 38 49 33 285 74 346 83 237 66 285 43 104 350 360 49 340 104 30 31 70 344 26 52 134 52 53 11 14 106 200 267 294 173 82 92 235 283 267 205 187 231 300 13 355 335 334 356 64 104 116 64 11 252 194 12 49 289 191 217 266 284 162 113 95 56 28 24 47 67 45 331 329
112 135 147 140 113 200 160 296 259 276 304 287 301 32 69 38 101 107 95 225 53 284 2 15 273 11 33 64 2 319 24 355 354 63 9 9 6 28 13 21 19 45 41 10 13 336 16 353 39 279 359 316 62 333 18 53 21 49 30 6 345 348 4 37 356 42 83 279 267 259 8 2 315 258 215 96 55 103 112 76 64 359 347 317 296 285 271 262
107 109 119 64 248 19 134 262 234 289 284 328 45 66 77 48 13 99 181 334 112 299 98 287 330 93 18 355 65 333 1 336 353 60 63 52 51 40 6 83 344 29 346 9 325 340 351 358 285 322 271 53 348 48 320 15 15 30 32 25 52 301 27 337 17 359 182 209 262 324 13 2 257 259 149 132 90 69 86 134 164 134 304 282 277 261 242 245
51 77 67 43 22 57 283 205 222 249 331 350 78 57 58 98 87 288 321 339 219 115 290 132 267 351 280 60 349 324 290 75 340 74 108 45 99 52 33 60 342 131 259 306 353 15 288 300 356 305 18 335 96 54 330 5 344 8 38 51 66 20 20 265 276 237 296 308 291 315 15 256 94 184 130 117 124 128 139 170 175 175 213 290 293 267 270 267
15 17 79 18 83 132 178 149 197 125 97 60 77 37 44 64 222 39 241 298 249 329 41 60 337 15 54 105 312 40 38 273 76 356 52 121 57 34 337 6 23 6 73 323 64 319 50 346 314 50 3 345 48 114 200 196 295 266 187 129 172 140 157 266 273 282 262 257 283 287 349 230 135 239 144 140 145 154 170 177 192 186 207 309 295 290 302 291
326 50 121 38 55 133 156 187 174 189 91 69 53 80 100 193 132 154 274 303 310 352 66 328 31 64 359 37 273 344 143 340 73 75 25 69 13 61 2 352 353 51 9 81 304 75 45 224 251 271 215 57 129 252 123 96 101 262 175 95 62 228 128 159 216 268 284 308 322 330 189 319 125 135 161 141 157 151 173 190 137 287 265 332 318 296 290 289
11 216 152 87 79 216 166 170 155 88 91 58 75 49 108 181 175 80 119 207 291 40 307 358 70 68 323 4 326 30 312 107 337 79 14 69 77 53 315 33 17 20 29 83 248 17 11 324 248 308 17 36 277 325 284 109 67 286 46 344 238 181 120 207 326 262 275 9 264 175 88 76 35 260 217 186 124 172 50 196 183 234 251 292 282 277 278 274
14 355 42 326 25 190 157 152 128 77 62 87 89 78 187 343 187 230 325 57 232 133 30 91 319 88 355 315 324 348 325 48 321 91 27 117 21 22 353 325 69 27 35 126 332 181 123 268 298 17 358 19 252 200 282 295 143 62 31 253 277 102 129 131 252 316 323 250 267 304 281 250 133 291 130 270 68 312 12 320 262 246 269 299 286 280 276 274
337 61 120 20 267 145 116 135 72 46 79 80 70 123 15 95 302 124 279 355 19 12 80 93 276 97 329 71 347 7 327 90 319 51 110 68 117 72 68 338 314 62 329 352 126 274 105 358 299 311 283 297 342 40 352 323 64 114 225 235 68 320 345 317 84 317 341 297 281 283 268 266 171 198 125 326 23 339 342 340 316 304 301 281 277 283 292 280
33 83 19 293 273 147 164 128 73 73 60 60 104 81 349 134 279 187 234 172 194 118 74 322 136 346 116 52 248 332 5 49 320 60 83 355 87 35 74 6 291 336 328 356 61 301 29 141 299 312 38 288 2 72 298 300 327 33 30 10 338 114 196 74 227 192 192 269 310 277 277 273 105 165 120 333 5 330 329 320 313 274 263 268 337 349 337 336
60 37 340 269 234 110 146 81 57 45 63 92 160 88 182 98 273 277 236 112 4 80 316 73 358 82 27 95 101 30 324 42 54 345 94 319 116 29 37 348 317 317 327 333 163 15 317 110 237 279 323 28 359 16 237 146 39 332 24 331 1 13 229 135 283 185 231 254 254 293 303 268 169 153 142 58 13 291 316 309 298 272 276 319 359 348 334 321
71 100 272 263 231 142 65 44 47 46 90 40 82 128 39 151 332 314 277 186 70 261 115 91 58 89 225 41 350 356 2 16 27 57 94 22 84 316 54 2 302 318 348 20 45 342 45 3 222 307 354 5 255 238 205 136 151 145 133 118 176 18 331 322 281 70 77 277 267 291 276 286 147 167 155 97 350 341 313 294 259 286 311 341 339 336 317 312
88 65 286 265 317 86 74 49 10 36 88 76 57 127 77 203 56 312 350 328 102 70 23 96 37 94 36 61 169 8 59 33 5 89 358 134 341 119 288 8 312 250 108 74 273 260 138 205 119 294 223 266 249 267 307 93 94 127 111 346 150 140 113 193 286 276 353 245 146 217 283 275 170 181 147 82 305 306 292 248 225 290 286 305 309 298 305 313
58 165 245 282 303 85 70 60 353 36 69 214 281 17 354 32 107 275 58 344 36 28 44 56 14 86 335 100 359 65 67 59 13 85 121 96 166 225 272 350 327 32 84 319 22 279 85 91 17 272 297 299 312 313 341 49 53 18 16 57 48 273 180 185 221 202 208 299 332 305 250 256 254 233 179 140 236 264 260 237 247 277 282 288 322 336 337 335
135 141 347 322 50 85 80 124 104 78 78 15 68 115 4 126 62 357 34 345 58 358 82 30 1 77 141 74 99 63 306 96 8 89 30 99 60 218 18 27 50 38 89 240 128 277 46 291 96 331 353 333 341 348 354 335 39 73 284 273 144 76 71 184 83 69 295 236 229 237 267 283 248 196 266 289 337 350 344 324 328 335 338 333 331 324 325 322
88 2 44 323 6 58 104 176 130 137 147 147 121 63 13 27 30 138 124 4 346 59 73 7 176 318 32 225 96 80 21 117 167 352 108 113 188 35 7 60 70 103 57 209 238 299 111 232 83 25 331 335 327 328 313 309 305 285 170 124 285 145 148 34 283 287 200 271 98 191 260 263 254 255 304 336 344 336 329 321 329 321 310 321 321 323 321 319
33 103 305 3 7 30 51 51 100 128 138 124 61 98 95 80 334 348 93 18 91 48 81 141 337 73 30 34 36 34 20 5 100 279 61 323 310 328 218 73 86 147 250 208 313 104 172 316 112 157 155 222 230 243 242 293 310 313 292 292 273 209 171 126 106 128 252 243 284 251 264 291 297 306 313 318 331 320 317 322 324 325 321 318 317 316 314 308
62 91 175 98 346 43 56 17 89 75 153 158 93 151 37 120 202 1 37 96 17 98 50 56 2 57 331 62 19 21 340 66 22 78 5 150 261 248 307 147 337 189 187 33 348 89 63 3 283 91 225 215 228 254 270 284 275 278 289 287 266 186 169 165 203 259 164 27 281 245 214 297 288 299 303 310 317 309 306 318 321 319 318 318 317 312 310 310
76 254 101 198 126 172 62 1 86 77 39 76 114 89 143 88 24 100 345 55 70 24 109 352 30 63 105 138 149 60 341 32 50 265 336 253 358 333 11 359 55 319 70 12 15 106 132 168 258 99 261 246 266 272 278 283 263 266 268 272 273 208 165 190 233 227 134 182 255 281 311 295 287 295 303 303 305 304 311 315 315 312 314 313 313 316 318 315
114 143 122 155 78 249 171 181 99 103 68 85 85 72 73 88 82 234 151 310 29 345 61 130 341 354 9 20 113 138 46 80 318 286 160 253 223 356 20 353 307 16 72 22 9 120 82 243 243 216 274 270 270 268 273 287 296 298 290 286 287 180 211 201 230 224 202 245 270 295 307 285 285 297 302 298 299 308 309 309 311 316 313 314 319 320 317 313
219 115 70 31 88 108 7 56 89 75 71 43 93 322 127 121 142 260 11 63 50 328 5 89 204 342 58 50 74 115 220 177 181 200 237 119 330 121 225 177 232 327 52 86 45 320 99 278 17 329 332 288 266 280 308 310 303 295 293 295 202 201 219 191 159 250 12 293 278 320 314 295 287 281 282 291 308 309 309 309 307 310 313 317 318 316 313 314
167 155 151 124 71 324 9 50 75 96 77 351 78 202 75 95 113 153 88 12 148 186 29 164 154 12 85 68 56 168 214 184 185 195 191 148 172 213 127 280 120 277 352 8 15 318 69 265 24 54 1 305 302 308 308 309 303 294 292 293 221 203 260 253 138 229 150 243 280 315 305 288 297 302 299 306 312 311 308 308 313 315 318 317 318 315 319 335
74 320 93 102 87 330 89 1 23 66 27 232 143 235 135 213 169 134 66 48 89 110 158 143 223 110 6 53 59 225 218 195 220 214 202 225 189 267 201 171 143 150 198 175 191 98 137 128 5 356 350 273 286 316 313 323 335 327 299 251 212 234 178 258 203 202 219 168 278 279 262 277 295 315 315 313 313 309 310 318 319 317 316 317 312 322 339 332